Redmond, OR

1:45 AM PST on November 22, 2017 (GMT -0800)
Roberts Field Airport

Weather History for KRDM - October, 2014

Change the Weather History Date:

Monday, October 27, 2014

  Actual Average Record
Temperature  
Mean Temperature 41 °F 44 °F  
Max Temperature 57 °F 58 °F 83 °F (1968)
Min Temperature 24 °F 30 °F 15 °F (1963)
Degree Days  
Heating Degree Days 24 21  
Month to date heating degree days 310 459  
Since 1 July heating degree days 570 858  
Cooling Degree Days 0 0  
Month to date cooling degree days 0 0  
Year to date cooling degree days 311 222  
Moisture  
Dew Point 29 °F    
Average Humidity 62    
Maximum Humidity 92    
Minimum Humidity 32    
Precipitation  
Precipitation 0.00 in 0.02 in 0.44 in (1961)
Month to date precipitation 0.40 0.53  
Year to date precipitation 5.82 6.67  
Sea Level Pressure  
Sea Level Pressure 30.14 in    
Wind  
Wind Speed 4 mph (SSE)    
Max Wind Speed 12 mph    
Max Gust Speed 16 mph    
Visibility 10 miles    
Events      
T = Trace of Precipitation, MM = Missing Value Source: NWS Daily Summary

Daily Weather History Graph

Daily Weather History Graph

Search for Another Location

Airport or City:

Trip Planner

Search our weather history database for the weather conditions in past years. The results will help you decide how hot, cold, wet, or windy it might be!

Date:

Astronomy

Oct. 27, 2014 Rise Set
Actual Time 7:35 AM PDT 6:01 PM PDT
Civil Twilight 7:05 AM PDT 6:31 PM PDT
Nautical Twilight 6:31 AM PDT 7:04 PM PDT
Astronomical Twilight 5:57 AM PDT 7:38 PM PDT
Moon 11:19 AM PDT (10/27) 9:07 PM PDT (10/27)
Length of Visible Light 11h 25m
Length of Day
10h 26m
Waxing Crescent, 16% of the Moon is Illuminated
Oct 27
Waxing Crescent
Oct 30
First Quarter
Nov 6
Full
Nov 14
Last Quarter
Nov 22
New

Hourly Weather History & Observations

Time (PDT) Temp. Windchill Dew Point Humidity Pressure Visibility Wind Dir Wind Speed Gust Speed Precip Events Conditions
12:56 AM 28.9 °F 25.2 °F 27.0 °F 92% 30.18 in 10.0 mi ESE 3.5 mph - N/A   Clear
1:56 AM 30.0 °F - 28.0 °F 92% 30.19 in 10.0 mi Calm Calm - N/A   Clear
2:56 AM 30.0 °F - 27.0 °F 88% 30.19 in 10.0 mi Calm Calm - N/A   Clear
3:56 AM 27.0 °F - 25.0 °F 92% 30.19 in 10.0 mi Calm Calm - N/A   Clear
4:56 AM 25.0 °F - 23.0 °F 92% 30.19 in 10.0 mi Calm Calm - N/A   Clear
5:56 AM 30.0 °F 24.1 °F 28.0 °F 92% 30.19 in 10.0 mi SSE 5.8 mph - N/A   Clear
6:56 AM 28.9 °F 25.2 °F 26.1 °F 89% 30.20 in 10.0 mi SSE 3.5 mph - N/A   Clear
7:56 AM 28.0 °F 24.2 °F 26.1 °F 92% 30.20 in 10.0 mi East 3.5 mph - N/A   Clear
8:56 AM 34.0 °F 31.0 °F 30.0 °F 85% 30.20 in 10.0 mi East 3.5 mph - N/A   Partly Cloudy
9:56 AM 39.0 °F 34.8 °F 32.0 °F 76% 30.19 in 10.0 mi East 5.8 mph - N/A   Clear
10:56 AM 45.0 °F 41.2 °F 32.0 °F 60% 30.18 in 10.0 mi SSE 6.9 mph - N/A   Clear
11:56 AM 46.9 °F - 30.9 °F 54% 30.16 in 10.0 mi SSE 6.9 mph - N/A   Clear
12:56 PM 51.1 °F - 32.0 °F 48% 30.13 in 10.0 mi South 9.2 mph - N/A   Clear
1:56 PM 53.1 °F - 30.9 °F 43% 30.10 in 10.0 mi SW 8.1 mph - N/A   Clear
2:56 PM 55.9 °F - 27.0 °F 33% 30.08 in 10.0 mi South 5.8 mph - N/A   Clear
3:56 PM 55.9 °F - 28.0 °F 34% 30.08 in 10.0 mi SW 6.9 mph - N/A   Clear
4:56 PM 54.0 °F - 28.0 °F 37% 30.08 in 10.0 mi SW 6.9 mph - N/A   Clear
5:56 PM 52.0 °F - 28.9 °F 41% 30.08 in 10.0 mi NW 6.9 mph - N/A   Clear
6:56 PM 50.0 °F - 28.9 °F 44% 30.08 in 10.0 mi NW 3.5 mph - N/A   Overcast
7:56 PM 48.0 °F - 30.9 °F 52% 30.10 in 10.0 mi Calm Calm - N/A   Overcast
8:56 PM 48.0 °F - 30.9 °F 52% 30.09 in 10.0 mi Calm Calm - N/A   Overcast
9:56 PM 46.9 °F - 32.0 °F 56% 30.08 in 10.0 mi Calm Calm - N/A   Overcast
10:56 PM 44.1 °F 42.5 °F 32.0 °F 63% 30.08 in 10.0 mi South 3.5 mph - N/A   Overcast
11:56 PM 41.0 °F 36.4 °F 32.0 °F 70% 30.07 in 10.0 mi SSE 6.9 mph - N/A   Scattered Clouds